Regional Weather Roundup
Issued by NWS Wakefield, VA

Home | Current Version | Previous Version | Graphics & Text | Print | Product List | Glossary On
Versions: 1 2 3 4 5 6 7 8 9 10 11 12 13 14 15 16 17 18 19 20 21 22 23 24 25 26 27
000
ASUS41 KAKQ 202010
RWRAKQ

REGIONAL WEATHER ROUNDUP
NATIONAL WEATHER SERVICE WAKEFIELD VA
400 PM EDT SUN APR 20 2014

Note: "fair" indicates few or no clouds below 12,000 feet with no
significant weather and/or obstructions to visibility. * = Denotes
station may not report precipitation (e.g., rain,snow,etc.),
thunder or fog.

VAZ042-051-052>054-056-202100-
NORTHERN VIRGINIA

CITY           SKY/WX    TMP DP  RH WIND       PRES   REMARKS
WASH NATIONAL  PTSUNNY   64  37  36 E14       30.35F
DULLES         PTSUNNY   61  33  35 NE13G18   30.34F
FORT BELVOIR   MOSUNNY   63  34  33 E6        30.34F
QUANTICO       SUNNY     64  36  35 NE14      30.34F
FREDERICKSBRG* SUNNY     66  34  30 NE12G18   30.32S
STAFFORD*      SUNNY     65  37  35 NE7G13    30.36F
WARRENTON      SUNNY     65  42  42 NE8       30.32F
CULPEPER*      MOSUNNY   68  28  22 NE5       30.32F
MANASSAS*      MOSUNNY   64  36  34 E9        30.33F
LEESBURG*      MOSUNNY   61  37  41 NE5       30.35F
WINCHESTER     SUNNY     63  32  31 E7        30.32F
$$

VAZ048-049-060>072-079>083-202100-
CENTRAL AND SOUTH CENTRAL VIRGINIA...AND NORTH CENTRAL NORTH CAROLINA

CITY           SKY/WX    TMP DP  RH WIND       PRES   REMARKS
RICHMOND       PTSUNNY   65  35  33 NE15G26   30.29F
CHESTERFIELD*  NOT AVBL
HANOVER        SUNNY     64  33  31 VRB7G18   30.31F
TAPPAHANNOCK*  SUNNY     62  31  30 NE12G21   30.32F
CHARLOTTSVILLE SUNNY     65  35  33 E8G17     30.29F
ORANGE*        MOSUNNY   64  32  29 NE10G16   30.32F
LOUISA*        SUNNY     66  36  32 NE10G20   30.29S
FARMVILLE*     SUNNY     70  34  26 NE12G21   30.25F
SOUTH HILL*    PTSUNNY   66  39  37 NE7       30.29F
ROANOKE RAPIDS MOCLDY    64  45  48 NE14G24   30.23F
RALEIGH        PTSUNNY   67  44  43 NE16G28   30.20F
$$

VAZ088>098-202100-
SOUTHEAST VIRGINIA

CITY           SKY/WX    TMP DP  RH WIND       PRES   REMARKS
NORFOLK        PTSUNNY   55  45  68 NE25G31   30.28S
VIRGINIA BEACH CLOUDY    52  42  69 NE26G35   30.28S
NORFOLK NAVAL  PTSUNNY   54  43  66 NE24G32   30.31S
WEST POINT*    SUNNY     64  36  35 E21       30.33F
NEWPORT NEWS   MOSUNNY   61  39  44 NE18G32   30.31F
LANGLEY AFB    MOSUNNY   58  42  56 NE25G33   30.30F
FORT EUSTIS    MOSUNNY   60  43  52 E16G26    30.29F
WILLIAMSBURG*  MOSUNNY   66  41  39 NE12G28   30.32S
FRANKLIN*      PTSUNNY   63  37  39 NE20G30   30.28S
WAKEFIELD      MOSUNNY   63  38  39 NE9G17    30.29F
$$

VAZ020-022-025-037-045-202100-
WESTERN AND SOUTHWEST VIRGINIA

CITY           SKY/WX    TMP DP  RH WIND       PRES   REMARKS
STAUNTON*      SUNNY     64  30  27 NE7       30.30F
HOT SPRINGS VA SUNNY     57  27  30 E8        30.34S
LYNCHBURG      SUNNY     71  31  22 E8G20     30.27F
DANVILLE       SUNNY     69  34  27 NE14      30.23F
MARTINSVILLE   SUNNY     70  33  25 N10       30.25F
ROANOKE        MOSUNNY   68  29  23 SE9       30.26F
BLACKSBURG     SUNNY     64  34  32 E8        30.28F
DUBLIN*        SUNNY     64  29  26 E7        30.26F
MARION*        SUNNY     65  27  23 NE7G16    30.27F
HILLSVILLE*    SUNNY     64   9  11 NE7       30.28F
RICHLANDS*     CLEAR     73  28  19 NE7       30.23F
WISE*          SUNNY     72  14  11 S6        30.23F
ABINGDON*      SUNNY     72  26  17 E7        30.20F
$$

MDZ021>025-VAZ099-100-202100-
SOUTHERN MARYLAND AND THE DELMARVA PENINSULA

CITY           SKY/WX    TMP DP  RH WIND       PRES   REMARKS
PATUXENT RIVER PTSUNNY   61  35  37 E14       30.35F
BAY BRIDGE APT MOSUNNY   61  34  36 E8G16     30.37F
LEONARDTOWN    SUNNY     59  32  36 N7G16     30.36F
DOVER          MOSUNNY   54  36  49 E16       30.36F
GEORGETOWN     MOSUNNY   53  29  39 E17G26    30.40F
EASTON         PTSUNNY   59  37  44 E13G18    30.41F
CAMBRIDGE      SUNNY     59  32  36 E14G21    30.37S
SALISBURY      SUNNY     57  32  38 E20G28    30.37F
OCEAN CITY     MOSUNNY   51  36  56 NE21G29   30.38F
WALLOPS ISLAND MOSUNNY   54  42  64 E25G33    30.36F
ACCOMACK*      MOSUNNY   54  34  47 E18G32    30.33F
$$

NCZ012>017-030>032-202100-
EASTERN NORTH CAROLINA

CITY           SKY/WX    TMP DP  RH WIND       PRES   REMARKS
ELIZABETH CITY LGT RAIN  50  47  89 NE25G35   30.23S FOG
AHOSKIE*       PTSUNNY   60  35  40 N18G30    30.25F
EDENTON*       LGT RAIN  52  51  98 NE18G32   30.22S
CURRITUCK*     LGT RAIN  50  46  87 N23G30    30.26R
KILL DEVIL HLS RAIN      49  48  97 N16G33    30.17S
MANTEO         LGT RAIN  49  48  97 NE25G38   30.10F
CAPE HATTERAS  RAIN      55  55 100 N15G25    30.06F FOG
GOLDSBORO      CLOUDY    60  52  75 N18G28    30.16F
WASHINGTON     CLOUDY    53  49  85 NE20G32   30.19S
GREENVILLE     CLOUDY    59  50  72 NE17G26   30.20F
NEW BERN       LGT RAIN  56  52  86 NE22G33   30.14R FOG
WILMINGTON     CLOUDY    59  55  87 N17G35    30.07S
$$

VAZ048-202100-
ELSEWHERE

CITY           SKY/WX    TMP DP  RH WIND       PRES   REMARKS
HARRISBURG PA  MOSUNNY   64  35  34 SE7       30.34F
BALTIMORE      PTSUNNY   59  35  40 NE12G18   30.36F
ANNAPOLIS      MOSUNNY   58  36  43 NE8       30.36F
ANDREWS AFB    MOSUNNY   59  37  44 E13       30.34F
WILMINGTON DE  MOSUNNY   59  31  34 NE10      30.39F
PHILADELPHIA   PTSUNNY   58  28  32 E12       30.40F
WILDWOOD NJ*   MOSUNNY   50  30  46 NE21G26   30.41F
ATLANTIC CITY  MOSUNNY   52  30  43 NE18G25   30.41F
HENDERSON NC   MOSUNNY   66  39  37 N14G21    30.23F
GREENSBORO     PTSUNNY   68  30  24 NE14G24   30.21F
ROCKY MOUNT    CLOUDY    61  46  57 N23G37    30.22F
FAYETTEVILLE   CLOUDY    68  48  48 NE20G30   30.14F
CHARLOTTE      MOSUNNY   70  33  25 N14       30.20F
$$

VAZ100-202100-
MARINE

STATION/POSITION TIME  TEMP    WIND        PRES    WAVE   SWELL
                       AIR SEA DIR/SP/G            HT/PER HT/PER
                 (UTC) (F)     (DEG/KT/KT) (MB)    (FT/S) (FT/S)
44066 TX TWR #4  2000   44 44   50/ 17/ 21 1029.4F   7/ 7   3/ 8
CAPE MAY NJ      2000   49 53   80/ 12/ 18 1029.1F
LEWES DE         2000   47 51   70/ 21/ 23 1028.9F
15NM E FENWICK I 2000   46 47              1028.1F   9/ 8
OCEAN-CITY-INLET 2000   49 49   70/  8/ 13 1028.5S
WACHAPREAGUE VA  2000   51 55   40/ 26/ 32 1026.8S
THOMAS POINT MD  2000   56 54  100/  9/ 11 1028.7F
GOOSES REEF MD   2000   55      80/ 12/ 14 1029.5S
COVE POINT MD    2000   56      70/ 11/ 13 1027.7F
SOLOMONS ISLAND  2000      54                N/A
BISHOPS HEAD MD  2000   57 60   70/ 12/ 16 1027.4S
PINEY POINT MD   2000          110/ 15/ 16   N/A
POTOMAC MD       2000   55      80/ 12/ 16 1027.0F
CAMBRIDGE MD     2000   55 57   60/ 17/ 19 1027.7F
LEWISETTA VA     2000   56 55   80/  9/ 12 1027.3S
RAPPAHANNOCK LGT 2000           40/ 21/ 23 1027.2F
STINGRAY PT      2000   53      80/ 17/ 21 1027.0F
YORK RVR RNG VA  2000   54      60/ 21/ 25 1025.8R
YORKTOWN VA      2000   56 54   60/ 21/ 23 1026.2F
JAMESTOWN VA     2000   58      50/ 12/ 23   N/A
DOMINION TERM VA 2000   57      40/ 12/ 24 1025.9F
KIPTOPEKE VA     2000      53   60/ 17/ 24   N/A
CHES BAY BRIDGE  2000   51 51   30/ 24/ 30 1025.0S
CAPE HENRY VA    2000   49      30/ 29/ 35   N/A
CHESAPEAKE LGHT  1900   48      30/ 31/ 35 1024.8S
WILLOUBY STN VA  2000   52      40/ 24/ 27 1025.1R
S CRANEY ISL VA  2000           10/ 22/ 27 1025.7S
CAPE HENRY BUOY  2000      46                N/A     9/10   3/11
1ST LANDING BUOY 2000      46                N/A     8/ 9   7/ 9
64NM E OF VA BCH 2000   50 49   20/ 19/ 23 1022.1S  14/11  11/11
DUCK PIER NC     2000   48 49   20/ 33/ 40 1021.4R
44100 DUCK FRF   2000      48                N/A    12/11   7/11
44056 DUCK FRF   2000      48                N/A    12/11   7/11
OREGON INLET NC  2000   50 51   10/ 20/ 29 1020.2F
HATTERAS NC      2000   55 55   10/ 15/ 22 1018.0F
DIAMOND SHLS NC  2000   69 75   70/ 29/ 37 1014.8R  16/11
CAPE LOOKOUT NC  1900   56      10/ 27/ 35 1016.6S
FRYING PAN SHLS  2000   60 68   20/ 35/ 43 1012.9F  10/ 8
$$



USA.gov is the U.S. government's official web portal to all federal, state and local government web resources and services.